Regional Weather Roundup
Issued by NWS

Home | Current Version | Previous Version | Graphics & Text | Print | Product List | Glossary On
Versions: 1 2 3 4 5 6 7 8 9 10 11 12 13 14 15 16 17 18 19 20 21 22 23 24 25 26 27 28 29 30 31 32 33 34 35 36 37 38 39 40 41 42 43 44 45 46 47 48 49 50
000
ASUS43 KDTX 181310
RWRMI
MICHIGAN HOURLY REGIONAL WEATHER ROUNDUP
NATIONAL WEATHER SERVICE DETROIT/PONTIAC MI
ISSUED BY NATIONAL WEATHER SERVICE GRAND RAPIDS MI
900 AM EDT FRI AUG 18 2017

NOTE: "FAIR" INDICATES FEW OR NO CLOUDS BELOW 12,000 FEET WITH NO
SIGNIFICANT WEATHER AND/OR OBSTRUCTION TO VISIBILITY.

MIZ047>049-052>055-059>063-066>070-074>076-081>083-181400-
SOUTHEAST LOWER MICHIGAN

CITY           SKY/WX    TMP DP  RH WIND       PRES   REMARKS
ADRIAN         SUNNY     70  65  84 W13       29.79R
ALMA           CLOUDY    65  62  91 W13G21    29.73R
ANN ARBOR      MOSUNNY   72  64  76 SW13      29.76R
BAD AXE        CLOUDY    67  64  87 SW17G24   29.68S
DETROIT CITY   PTSUNNY   72  64  76 W15G22    29.75R
DETROIT        MOSUNNY   72  65  78 SW14      29.77R
FLINT          CLOUDY    67  64  90 W14G20    29.74R
GROSSE ILE     MOSUNNY   72  65  78 SW9G22    29.76R
HILLSDALE      PTSUNNY   68  63  83 W8G18     29.79S
HOWELL         RAIN      67  64  89 W12       29.76R

CITY           SKY/WX    TMP DP  RH WIND       PRES   REMARKS
JACKSON          N/A     68  63  84 SW12G20   29.78R
LANSING        CLOUDY    66  62  87 W14       29.76S
MASON          CLOUDY    70  62  75 W8G17     29.77R
MONROE         MOSUNNY   72  66  80 W13       29.77R
MT. CLEMENS    MOSUNNY   73  64  72 SW13G23   29.72S
PONTIAC        PTSUNNY   70  63  78 W14       29.74R
PORT HOPE        N/A     68  64  87 SW8G17    29.64R
PORT HURON     MOSUNNY   73  64  73 SW6       29.71F
TRI CITIES     CLOUDY    68  64  87 SW15      29.71R
YPSILANTI      SUNNY     73  66  78 W16       29.77R
$$
MIZ043>046-050>051-056>058-064>065-071>073-077>080-181400-
SOUTHWEST LOWER MICHIGAN

CITY           SKY/WX    TMP DP  RH WIND       PRES   REMARKS
BATTLE CREEK   CLOUDY    67  64  90 W14       29.80R FOG
BENTON HARBOR  CLOUDY    71  59  65 W14       29.82R
BIG RAPIDS     CLOUDY    63  60  90 W9G20     29.72R FOG
COLDWATER      PTSUNNY   69  66  89 W10       29.81R
HOLLAND        CLOUDY    69  61  75 W12G18    29.78S
GRAND RAPIDS   CLOUDY    67  64  90 W14       29.76R
KALAMAZOO      CLOUDY    68  63  84 W6        29.79R
MARSHALL       CLOUDY    68  65  92 W12       29.79R
MOUNT PLEASANT CLOUDY    69  60  74 W12       29.71R
MUSKEGON       PTSUNNY   69  62  78 NW16G25   29.75R
STURGIS        CLOUDY    68  64  88 W10G16    29.81R
$$
MIZ016>042-181400-
NORTHERN LOWER MICHIGAN

CITY           SKY/WX    TMP DP  RH WIND       PRES   REMARKS
ALPENA         CLOUDY    69  67  93 SW8       29.59R
BEAVER ISLAND  CLOUDY    63  61  95 W10G18    29.62R
BELLAIRE       HVY RAIN  64  62  93 W6        29.64R
CADILLAC       DRIZZLE   64  61  91 W8        29.69R
CHARLEVOIX     CLOUDY    64  64 100 W17       29.64R FOG
GAYLORD        LGT RAIN  62  60  93 W14       29.63R FOG
HOUGHTON LAKE  CLOUDY    64  61  90 W17       29.67R
MANISTEE       CLOUDY    66  62  87 W12       29.69R
OSCODA         CLOUDY    69  65  85 SW16G25   29.62R
PELLSTON       CLOUDY    64  63  96 W12       29.59R
TRAVERSE CITY  CLOUDY    66  61  84 W10       29.64R
LUDINGTON      CLOUDY    66  60  80 W12G20    29.72R
$$
MIZ007>008-015-181400-
EASTERN UPPER MICHIGAN

CITY           SKY/WX    TMP DP  RH WIND       PRES   REMARKS
KINROSS        CLOUDY    67  66  97 W9        29.54R
MACKINAC ISLAN CLOUDY    64  64 100 W14       29.56R
NEWBERRY       CLOUDY    60  59  97 W12G17    29.57R
S. S. MARIE    FOG       66  65  96 W9        29.53R VSB 3/4
$$
MIZ004>006-011>014-085-181400-
CENTRAL UPPER MICHIGAN

CITY           SKY/WX    TMP DP  RH WIND       PRES   REMARKS
MANISTIQUE     CLOUDY    60  55  82 NW10G20   29.61R
ESCANABA       CLOUDY    64  58  80 NW10G20   29.65R
MENOMINEE      CLOUDY    65  59  81 VRB6      29.70R
SAWYER-GWINN   CLOUDY    59  55  88 NW14G20   29.68R
$$
MIZ001>003-009>011-084-181400-
WESTERN UPPER MICHIGAN

CITY           SKY/WX    TMP DP  RH WIND       PRES   REMARKS
IRON MOUNTAIN  PTSUNNY   63  55  75 NW21G29   29.70R
HOUGHTON       CLOUDY    59  56  89 NW10      29.72R
COPPER HARBOR    N/A     56  55  97 N14       29.68S
IRONWOOD       CLOUDY    60  59  96 W7        29.82R
$$

ABBREVIATIONS USED IN REMARKS
   TC - TEMPERATURE IN CELSIUS
  WCI - WIND CHILL INDEX
   HX - HEAT INDEX
  VSB - VISIBILITY





USA.gov is the U.S. government's official web portal to all federal, state and local government web resources and services.